"Pseudo-MPEC" for P21vBhD

Created 2022 Aug 18 16:22:19 UT using Find_Orb

Click here for an explanation of pseudo-MPECs

 
 Astrometry: 
     P21vBhD* C2022 07 29vq8IG+lh65!2hEAEfAstrometry.;xCDca=tUPredacted;02L[$F52
     P21vBhD  C2022 07 29P(cVN+l=,$,,EQL.FJ+E4clickGbb8hereLh?.Foj/Ks:=6uv,tMF52
     P21vBhD  C2022 07 29X(N]hsK55gk(:YG%FhA?(^V(YRi-forZG6b^X[/mpQ8xkqyGP;m\F52
     P21vBhD  C2022 07 293tC\-uK;/M+qec,u0#LUqMU#J1uaDO5g1C=78dwRO:^$J;*LKUysF52
     P21vBhD  C2022 07 29V*_+k]Z'KE$B\9TexplanationPSm.W.m]YH69vFD[QieJC0(?mDF52

Station data:
(F52) Pan-STARRS 2, Haleakala  (N20.707382 W156.255910)  US/Hawaii.
   Observers J. Bulger, T. Dukes, T. Lowe, A. Schultz, M. Willman. Measurers
   K. Chambers, S. Chastel, T. de Boer, L. Denneau, J. Fairlamb, H.
   Flewelling, M. Huber, C.-C. Lin, E. Magnier, Y. Ramanjooloo, R. Wainscoat,
   R. Weryk. 1.8-m Ritchey-Chrétien + CCD.

Orbital elements:  P21vBhD
   Perihelion 2023 Jun 5.81514 +/- 157 TT = 19:33:48 (JD 2460101.31514)
Epoch 2022 Jul 29.0 TT = JDT 2459789.5   Earth MOID: 0.7579   AutoNEOCP
M 232.83904716 +/- 90               (J2000 ecliptic)
n   0.40780878 +/- 0.245            Peri.  322.39126 +/- 100
a   1.80093621 +/- 0.722            Node   113.21988 +/- 31
e   0.0395934 +/- 0.284             Incl.   22.61918 +/- 24
P   2.42/882.75d           H 20.8   G  0.15   U 11.8  SR
q 1.72963094 +/- 0.705    Q 1.87224148 +/- 32.9
From 5 observations 2022 July 29 (2.1 hr); mean residual 0".09
Residuals in arcseconds: 
220729 F52  .03+  .15+    220729 F52  .04-  .04-    220729 F52  .02-  .08-    
220729 F52  .00   .17-    220729 F52  .04+  .13+    

Ephemerides (geocentric):
Date (UTC) HH   RA             Dec           delta  r     elong  mag " sig PA
---- --------  ------------   ------------  ------ ------ -----  --- --------
2022 08 18 16  20 03 39.496   -36 03 36.10  .90501 1.8373 146.7 22.8  26d  21
2022 08 18 17  20 03 37.198   -36 04 12.84  .90524 1.8373 146.7 22.8  26d  21
2022 08 18 18  20 03 34.905   -36 04 49.54  .90547 1.8373 146.7 22.8  26d  21
2022 08 18 19  20 03 32.615   -36 05 26.17  .90570 1.8373 146.6 22.8  26d  21
2022 08 18 20  20 03 30.329   -36 06 02.76  .90592 1.8373 146.6 22.8  26d  21
2022 08 18 21  20 03 28.047   -36 06 39.30  .90615 1.8372 146.5 22.8  26d  21
2022 08 18 22  20 03 25.770   -36 07 15.78  .90638 1.8372 146.5 22.8  26d  21
2022 08 18 23  20 03 23.496   -36 07 52.21  .90661 1.8372 146.4 22.8  26d  21
2022 08 19 00  20 03 21.226   -36 08 28.58  .90684 1.8372 146.4 22.8  26d  21
2022 08 19 01  20 03 18.961   -36 09 04.91  .90707 1.8372 146.3 22.8  26d  21
2022 08 19 02  20 03 16.699   -36 09 41.18  .90730 1.8371 146.3 22.8  26d  21
2022 08 19 03  20 03 14.441   -36 10 17.40  .90753 1.8371 146.2 22.9  26d  21
2022 08 19 04  20 03 12.187   -36 10 53.57  .90776 1.8371 146.2 22.9  26d  21
2022 08 19 05  20 03 09.938   -36 11 29.68  .90799 1.8371 146.1 22.9  26d  21
2022 08 19 06  20 03 07.692   -36 12 05.74  .90822 1.8371 146.1 22.9  26d  21
2022 08 19 07  20 03 05.450   -36 12 41.76  .90845 1.8371 146.0 22.9  26d  21
2022 08 19 08  20 03 03.213   -36 13 17.71  .90868 1.8370 146.0 22.9  26d  21
2022 08 19 09  20 03 00.979   -36 13 53.62  .90891 1.8370 145.9 22.9  26d  21
2022 08 19 10  20 02 58.750   -36 14 29.47  .90915 1.8370 145.9 22.9  26d  21
2022 08 19 11  20 02 56.525   -36 15 05.27  .90938 1.8370 145.8 22.9  26d  21
2022 08 19 12  20 02 54.303   -36 15 41.02  .90961 1.8370 145.8 22.9  26d  21
2022 08 19 13  20 02 52.086   -36 16 16.72  .90984 1.8370 145.8 22.9  26d  21
2022 08 19 14  20 02 49.873   -36 16 52.36  .91008 1.8369 145.7 22.9  26d  21
2022 08 19 15  20 02 47.664   -36 17 27.95  .91031 1.8369 145.7 22.9  26d  21
2022 08 19 16  20 02 45.459   -36 18 03.49  .91055 1.8369 145.6 22.9  26d  21
2022 08 19 17  20 02 43.258   -36 18 38.98  .91078 1.8369 145.6 22.9  26d  21
2022 08 19 18  20 02 41.062   -36 19 14.42  .91101 1.8369 145.5 22.9  26d  21
2022 08 19 19  20 02 38.869   -36 19 49.80  .91125 1.8368 145.5 22.9  26d  21
2022 08 19 20  20 02 36.681   -36 20 25.13  .91148 1.8368 145.4 22.9  26d  21
2022 08 19 21  20 02 34.496   -36 21 00.41  .91172 1.8368 145.4 22.9  26d  20
2022 08 19 22  20 02 32.316   -36 21 35.63  .91196 1.8368 145.3 22.9  26d  20
2022 08 19 23  20 02 30.140   -36 22 10.81  .91219 1.8368 145.3 22.9  26d  20
2022 08 20 00  20 02 27.968   -36 22 45.93  .91243 1.8368 145.2 22.9  26d  20
2022 08 20 01  20 02 25.800   -36 23 21.00  .91267 1.8367 145.2 22.9  26d  20
2022 08 20 02  20 02 23.637   -36 23 56.02  .91290 1.8367 145.1 22.9  26d  20
2022 08 20 03  20 02 21.477   -36 24 30.98  .91314 1.8367 145.1 22.9  26d  20
2022 08 20 04  20 02 19.322   -36 25 05.89  .91338 1.8367 145.0 22.9  27d  20
2022 08 20 05  20 02 17.171   -36 25 40.75  .91362 1.8367 145.0 22.9  27d  20
2022 08 20 06  20 02 15.024   -36 26 15.56  .91386 1.8366 145.0 22.9  27d  20
2022 08 20 07  20 02 12.882   -36 26 50.32  .91409 1.8366 144.9 22.9  27d  20
2022 08 20 08  20 02 10.743   -36 27 25.02  .91433 1.8366 144.9 22.9  27d  20
2022 08 20 09  20 02 08.609   -36 27 59.68  .91457 1.8366 144.8 22.9  27d  20
2022 08 20 10  20 02 06.479   -36 28 34.28  .91481 1.8366 144.8 22.9  27d  20
2022 08 20 11  20 02 04.353   -36 29 08.83  .91505 1.8366 144.7 22.9  27d  20
2022 08 20 12  20 02 02.232   -36 29 43.32  .91529 1.8365 144.7 22.9  27d  20
2022 08 20 13  20 02 00.114   -36 30 17.77  .91553 1.8365 144.6 22.9  27d  20
2022 08 20 14  20 01 58.001   -36 30 52.16  .91577 1.8365 144.6 22.9  27d  20
2022 08 20 15  20 01 55.892   -36 31 26.50  .91602 1.8365 144.5 22.9  27d  20